User: anonymous   Login
Location: Unspecified
(0.0000°N, 0.0000°E)
Time: 13:30:52
(UTC+02:00)
Language:

Cosmos 1703 - Orbit

View from above orbital plane
View from above orbital plane
View from above satellite
View from above satellite

Ground track
Ground track

The orbit data is extracted from the following two-line orbital elements,

1 16262U 85108A   16148.89415861 +.00000666 +00000-0 +39433-4 0  9995
2 16262 082.4740 268.1662 0010162 154.6998 205.4731 15.09703424660499
Epoch (UTC): 27 May 2016 21:27:35
Eccentricity: 0.0010162
inclination: 82.4740°
perigee height: 530 km
apogee height: 544 km
right ascension of ascending node: 268.1662°
argument of perigee: 154.6998°
revolutions per day: 15.09703424
mean anomaly at epoch: 205.4731°
orbit number at epoch: 66049

The dashed part of the orbit path shows where the satellite is in the earth's shadow,  

DLR